| time (UTC) | temp C | wind direction | speed KPH | gust KPH | rain 1hr cm | rain 24hr cm | rain mn cm | humidity % | barometer mb |
| 20260507131504 | 16 | 196 | 0.0 | 19.3 | 0.00 | 0.00 | 0.00 | 51 | 1015.9 |
| 20260507131004 | 15 | 128 | 4.8 | 19.3 | 0.00 | 0.00 | 0.00 | 52 | 1016.3 |
| 20260507130004 | 15 | 100 | 1.6 | 11.3 | 0.00 | 0.00 | 0.00 | 52 | 1016.3 |
| 20260507125504 | 16 | 113 | 0.0 | 11.3 | 0.00 | 0.00 | 0.00 | 51 | 1016.3 |
| 20260507125005 | 16 | 116 | 0.0 | 3.2 | 0.00 | 0.00 | 0.00 | 52 | 1016.3 |
| 20260507124504 | 15 | 102 | 0.0 | 3.2 | 0.00 | 0.00 | 0.00 | 53 | 1016.0 |
| 20260507123504 | 15 | 244 | 1.6 | 8.0 | 0.00 | 0.00 | 0.00 | 50 | 1015.9 |
| 20260507123004 | 15 | 263 | 3.2 | 11.3 | 0.00 | 0.00 | 0.00 | 50 | 1016.1 |
| 20260507122503 | 15 | 136 | 3.2 | 11.3 | 0.00 | 0.00 | 0.00 | 50 | 1016.0 |
| 20260507122004 | 16 | 265 | 3.2 | 8.0 | 0.00 | 0.00 | 0.00 | 48 | 1015.9 |
| 20260507121504 | 16 | 300 | 1.6 | 4.8 | 0.00 | 0.00 | 0.00 | 49 | 1015.9 |
| 20260507121004 | 15 | 255 | 0.0 | 3.2 | 0.00 | 0.00 | 0.00 | 50 | 1015.9 |
| 20260507120504 | 15 | 173 | 1.6 | 11.3 | 0.00 | 0.00 | 0.00 | 50 | 1016.2 |
| 20260507120006 | 15 | 96 | 1.6 | 11.3 | 0.00 | 0.00 | 0.00 | 51 | 1016.4 |
| 20260507115503 | 15 | 101 | 0.0 | 0.0 | 0.00 | 0.00 | 0.00 | 51 | 1015.9 |
| 20260507115004 | 15 | 180 | 3.2 | 4.8 | 0.00 | 0.00 | 0.00 | 49 | 1016.0 |
| 20260507114505 | 15 | 255 | 3.2 | 8.0 | 0.00 | 0.00 | 0.00 | 48 | 1016.3 |
| 20260507114004 | 16 | 61 | 1.6 | 11.3 | 0.00 | 0.00 | 0.00 | 50 | 1016.5 |
| 20260507113004 | 15 | 165 | 0.0 | 3.2 | 0.00 | 0.00 | 0.00 | 52 | 1016.6 |
| 20260507111506 | 15 | 214 | 1.6 | 4.8 | 0.00 | 0.00 | 0.00 | 57 | 1016.6 |
| 20260507110504 | 15 | 106 | 1.6 | 8.0 | 0.00 | 0.00 | 0.00 | 55 | 1016.3 |
| 20260507110004 | 15 | 117 | 1.6 | 8.0 | 0.00 | 0.00 | 0.00 | 54 | 1016.6 |
| 20260507105504 | 15 | 262 | 0.0 | 0.0 | 0.00 | 0.00 | 0.00 | 56 | 1016.3 |
| 20260507105004 | 15 | 73 | 0.0 | 0.0 | 0.00 | 0.00 | 0.00 | 56 | 1016.3 |
| 20260507104504 | 15 | 256 | 1.6 | 4.8 | 0.00 | 0.00 | 0.00 | 56 | 1016.3 |
| 20260507104004 | 15 | 313 | 3.2 | 4.8 | 0.00 | 0.00 | 0.00 | 54 | 1016.6 |
| 20260507103504 | 15 | 145 | 0.0 | 3.2 | 0.00 | 0.00 | 0.00 | 60 | 1016.3 |
| 20260507102505 | 14 | 308 | 1.6 | 11.3 | 0.00 | 0.00 | 0.00 | 56 | 1016.6 |
| 20260507101504 | 16 | 301 | 3.2 | 8.0 | 0.00 | 0.00 | 0.00 | 58 | 1016.6 |
| 20260507100503 | 14 | 89 | 1.6 | 14.5 | 0.00 | 0.00 | 0.00 | 61 | 1016.9 |
| 20260507095504 | 16 | 237 | 0.0 | 4.8 | 0.00 | 0.00 | 0.00 | 59 | 1016.9 |
| 20260507095004 | 16 | 267 | 3.2 | 4.8 | 0.00 | 0.00 | 0.00 | 57 | 1016.9 |
| 20260507094504 | 15 | 65 | 0.0 | 12.9 | 0.00 | 0.00 | 0.00 | 61 | 1016.6 |
| 20260507094005 | 15 | 58 | 8.0 | 12.9 | 0.00 | 0.00 | 0.00 | 62 | 1016.9 |
| 20260507093504 | 13 | 61 | 1.6 | 3.2 | 0.00 | 0.00 | 0.00 | 63 | 1017.3 |
| 20260507093004 | 15 | 89 | 1.6 | 3.2 | 0.00 | 0.00 | 0.00 | 59 | 1016.9 |
| 20260507092505 | 15 | 88 | 1.6 | 3.2 | 0.00 | 0.00 | 0.00 | 63 | 1017.3 |
| 20260507092004 | 15 | 50 | 0.0 | 3.2 | 0.00 | 0.00 | 0.00 | 64 | 1016.9 |
| 20260507091503 | 15 | 98 | 0.0 | 0.0 | 0.00 | 0.00 | 0.00 | 63 | 1016.9 |
| 20260507090503 | 15 | 224 | 0.0 | 0.0 | 0.00 | 0.00 | 0.00 | 64 | 1017.3 |
| 20260507090006 | 15 | 224 | 0.0 | 0.0 | 0.00 | 0.00 | 0.00 | 66 | 1017.3 |
| 20260507085504 | 15 | 193 | 0.0 | 0.0 | 0.00 | 0.00 | 0.00 | 66 | 1017.3 |
| 20260507085004 | 14 | 70 | 0.0 | 0.0 | 0.00 | 0.00 | 0.00 | 67 | 1017.3 |
| 20260507084505 | 14 | 84 | 0.0 | 0.0 | 0.00 | 0.00 | 0.00 | 68 | 1017.3 |
| 20260507084004 | 13 | 83 | 0.0 | 3.2 | 0.00 | 0.00 | 0.00 | 70 | 1016.6 |
| 20260507083505 | 13 | 208 | 0.0 | 3.2 | 0.00 | 0.00 | 0.00 | 74 | 1016.9 |
| 20260507083004 | 12 | 110 | 3.2 | 4.8 | 0.00 | 0.00 | 0.00 | 76 | 1016.6 |
| 20260507082504 | 11 | 58 | 3.2 | 11.3 | 0.00 | 0.00 | 0.00 | 77 | 1016.6 |
| 20260507082004 | 11 | 83 | 8.0 | 11.3 | 0.00 | 0.00 | 0.00 | 77 | 1017.3 |
| 20260507081503 | 11 | 54 | 8.0 | 11.3 | 0.00 | 0.00 | 0.00 | 77 | 1016.9 |
| 20260507081005 | 11 | 122 | 1.6 | 4.8 | 0.00 | 0.00 | 0.00 | 78 | 1016.3 |
| 20260507080004 | 11 | 83 | 3.2 | 11.3 | 0.00 | 0.00 | 0.00 | 79 | 1017.3 |
| 20260507075504 | 11 | 92 | 8.0 | 14.5 | 0.00 | 0.00 | 0.00 | 79 | 1016.9 |
| 20260507074504 | 11 | 102 | 3.2 | 14.5 | 0.00 | 0.00 | 0.00 | 80 | 1017.3 |
| 20260507073505 | 10 | 98 | 4.8 | 11.3 | 0.00 | 0.00 | 0.00 | 82 | 1016.9 |
| 20260507073004 | 10 | 87 | 8.0 | 19.3 | 0.00 | 0.00 | 0.00 | 82 | 1016.6 |
| 20260507072505 | 10 | 61 | 12.9 | 19.3 | 0.00 | 0.00 | 0.00 | 82 | 1017.3 |
| 20260507072004 | 9 | 82 | 0.0 | 12.9 | 0.00 | 0.00 | 0.00 | 84 | 1016.6 |
| 20260507071504 | 10 | 109 | 8.0 | 12.9 | 0.00 | 0.00 | 0.00 | 81 | 1016.6 |
| 20260507071004 | 10 | 102 | 3.2 | 14.5 | 0.00 | 0.00 | 0.00 | 82 | 1016.9 |
| 20260507070504 | 9 | 90 | 4.8 | 14.5 | 0.00 | 0.00 | 0.00 | 84 | 1016.9 |
| 20260507070008 | 9 | 97 | 8.0 | 11.3 | 0.00 | 0.00 | 0.00 | 83 | 1016.9 |
| 20260507065504 | 9 | 76 | 8.0 | 8.0 | 0.00 | 0.00 | 0.00 | 83 | 1016.6 |
| 20260507065004 | 9 | 133 | 1.6 | 8.0 | 0.00 | 0.00 | 0.00 | 84 | 1016.3 |
| 20260507064504 | 9 | 99 | 4.8 | 11.3 | 0.00 | 0.00 | 0.00 | 83 | 1016.3 |
| 20260507064004 | 9 | 106 | 8.0 | 14.5 | 0.00 | 0.00 | 0.00 | 84 | 1016.3 |
| 20260507063505 | 8 | 78 | 8.0 | 14.5 | 0.00 | 0.00 | 0.00 | 86 | 1017.3 |
| 20260507063005 | 8 | 96 | 4.8 | 11.3 | 0.00 | 0.00 | 0.00 | 86 | 1015.9 |
| 20260507062004 | 8 | 68 | 3.2 | 11.3 | 0.00 | 0.00 | 0.00 | 86 | 1017.3 |
| 20260507061504 | 8 | 95 | 0.0 | 8.0 | 0.00 | 0.00 | 0.00 | 86 | 1016.9 |
| 20260507061004 | 8 | 103 | 0.0 | 0.0 | 0.00 | 0.00 | 0.00 | 86 | 1016.3 |
| 20260507060505 | 7 | 116 | 0.0 | 0.0 | 0.00 | 0.00 | 0.00 | 87 | 1015.6 |
| 20260507060004 | 7 | 79 | 0.0 | 0.0 | 0.00 | 0.00 | 0.00 | 88 | 1015.6 |
| 20260507055504 | 6 | 108 | 0.0 | 0.0 | 0.00 | 0.00 | 0.00 | 90 | 1017.3 |
| 20260507055004 | 6 | 48 | 0.0 | 0.0 | 0.00 | 0.00 | 0.00 | 95 | 1016.9 |
| 20260507054504 | 5 | 48 | 0.0 | 0.0 | 0.00 | 0.00 | 0.00 | 94 | 1017.3 |
| 20260507054004 | 4 | 48 | 0.0 | 0.0 | 0.00 | 0.00 | 0.00 | 95 | 1015.9 |
| 20260507053503 | 3 | 48 | 0.0 | 0.0 | 0.00 | 0.00 | 0.00 | 95 | 1015.6 |
| 20260507053005 | 3 | 48 | 0.0 | 0.0 | 0.00 | 0.00 | 0.00 | 95 | 1015.6 |
| 20260507052505 | 3 | 48 | 0.0 | 0.0 | 0.00 | 0.00 | 0.00 | 95 | 1015.6 |
| 20260507052004 | 3 | 48 | 0.0 | 0.0 | 0.00 | 0.00 | 0.00 | 95 | 1017.3 |
| 20260507051504 | 3 | 48 | 0.0 | 0.0 | 0.00 | 0.00 | 0.00 | 95 | 1017.3 |
| 20260507051004 | 3 | 48 | 0.0 | 0.0 | 0.00 | 0.00 | 0.00 | 95 | 1016.9 |
| 20260507050504 | 3 | 48 | 0.0 | 0.0 | 0.00 | 0.00 | 0.00 | 95 | 1016.9 |
| 20260507050004 | 3 | 48 | 0.0 | 0.0 | 0.00 | 0.00 | 0.00 | 94 | 1015.6 |
| 20260507045503 | 3 | 48 | 0.0 | 0.0 | 0.00 | 0.00 | 0.00 | 94 | 1015.6 |
| 20260507044504 | 3 | 48 | 0.0 | 0.0 | 0.00 | 0.00 | 0.00 | 94 | 1015.6 |
| 20260507043504 | 3 | 48 | 0.0 | 0.0 | 0.00 | 0.00 | 0.00 | 94 | 1015.9 |
| 20260507043005 | 3 | 48 | 0.0 | 0.0 | 0.00 | 0.00 | 0.00 | 94 | 1015.6 |
| 20260507042504 | 3 | 48 | 0.0 | 0.0 | 0.00 | 0.00 | 0.00 | 94 | 1015.6 |
| 20260507042004 | 3 | 48 | 0.0 | 0.0 | 0.00 | 0.00 | 0.00 | 94 | 1015.6 |
| 20260507041505 | 3 | 48 | 0.0 | 0.0 | 0.00 | 0.00 | 0.00 | 94 | 1015.6 |
| 20260507041005 | 3 | 48 | 0.0 | 0.0 | 0.00 | 0.00 | 0.00 | 94 | 1015.6 |
| 20260507040504 | 3 | 52 | 0.0 | 0.0 | 0.00 | 0.00 | 0.00 | 94 | 1016.4 |
| 20260507035004 | 3 | 57 | 0.0 | 0.0 | 0.00 | 0.00 | 0.00 | 94 | 1015.4 |
| 20260507034504 | 3 | 57 | 0.0 | 0.0 | 0.00 | 0.00 | 0.00 | 94 | 1016.0 |
| 20260507034004 | 3 | 57 | 0.0 | 0.0 | 0.00 | 0.00 | 0.00 | 94 | 1016.5 |
| 20260507033504 | 3 | 57 | 0.0 | 0.0 | 0.00 | 0.00 | 0.00 | 94 | 1015.3 |
| 20260507033005 | 3 | 57 | 0.0 | 0.0 | 0.00 | 0.00 | 0.00 | 94 | 1015.6 |
| 20260507032504 | 3 | 57 | 0.0 | 0.0 | 0.00 | 0.00 | 0.00 | 94 | 1015.8 |
| 20260507032004 | 3 | 57 | 0.0 | 0.0 | 0.00 | 0.00 | 0.00 | 94 | 1016.8 |
| 20260507031504 | 3 | 57 | 0.0 | 0.0 | 0.00 | 0.00 | 0.00 | 94 | 1015.3 |
| 20260507031004 | 3 | 57 | 0.0 | 0.0 | 0.00 | 0.00 | 0.00 | 94 | 1015.6 |
| 20260507030505 | 3 | 57 | 0.0 | 0.0 | 0.00 | 0.00 | 0.00 | 94 | 1015.6 |
| 20260507025504 | 3 | 57 | 0.0 | 0.0 | 0.00 | 0.00 | 0.00 | 94 | 1016.9 |
| 20260507025003 | 3 | 57 | 0.0 | 0.0 | 0.00 | 0.00 | 0.00 | 94 | 1016.6 |
| 20260507024504 | 3 | 57 | 0.0 | 0.0 | 0.00 | 0.00 | 0.00 | 94 | 1015.2 |
| 20260507024004 | 3 | 57 | 0.0 | 0.0 | 0.00 | 0.00 | 0.00 | 94 | 1016.9 |
| 20260507023503 | 3 | 57 | 0.0 | 0.0 | 0.00 | 0.00 | 0.00 | 94 | 1015.2 |
| 20260507023004 | 3 | 57 | 0.0 | 0.0 | 0.00 | 0.00 | 0.00 | 94 | 1015.2 |
| 20260507021504 | 3 | 57 | 0.0 | 0.0 | 0.00 | 0.00 | 0.00 | 93 | 1016.6 |
| 20260507021004 | 3 | 57 | 0.0 | 0.0 | 0.00 | 0.00 | 0.00 | 93 | 1015.6 |
| 20260507020504 | 3 | 57 | 0.0 | 0.0 | 0.00 | 0.00 | 0.00 | 93 | 1015.2 |
| 20260507015504 | 3 | 57 | 0.0 | 0.0 | 0.00 | 0.00 | 0.00 | 93 | 1015.2 |
| 20260507015004 | 3 | 57 | 0.0 | 0.0 | 0.00 | 0.00 | 0.00 | 93 | 1016.6 |
| 20260507014503 | 3 | 57 | 0.0 | 0.0 | 0.00 | 0.00 | 0.00 | 93 | 1016.6 |
| 20260507013503 | 4 | 81 | 0.0 | 0.0 | 0.00 | 0.00 | 0.00 | 93 | 1016.6 |
| 20260507013005 | 4 | 81 | 0.0 | 0.0 | 0.00 | 0.00 | 0.00 | 93 | 1015.2 |
| 20260507011004 | 4 | 81 | 0.0 | 0.0 | 0.00 | 0.00 | 0.00 | 92 | 1015.2 |
| 20260507010503 | 4 | 81 | 0.0 | 0.0 | 0.00 | 0.00 | 0.00 | 91 | 1016.6 |
| 20260507005504 | 5 | 81 | 0.0 | 0.0 | 0.00 | 0.00 | 0.00 | 91 | 1015.2 |
| 20260507004505 | 5 | 81 | 0.0 | 0.0 | 0.00 | 0.00 | 0.00 | 91 | 1016.6 |
| 20260507004004 | 5 | 72 | 0.0 | 0.0 | 0.00 | 0.00 | 0.00 | 90 | 1016.6 |
| 20260507003503 | 5 | 65 | 0.0 | 0.0 | 0.00 | 0.00 | 0.00 | 90 | 1016.6 |
| 20260507003004 | 5 | 58 | 0.0 | 3.2 | 0.00 | 0.00 | 0.00 | 90 | 1015.6 |
| 20260507002503 | 5 | 37 | 0.0 | 3.2 | 0.00 | 0.00 | 0.00 | 89 | 1016.6 |
| 20260507002003 | 5 | 4 | 0.0 | 0.0 | 0.00 | 0.00 | 0.00 | 89 | 1015.6 |
| 20260507001504 | 5 | 4 | 0.0 | 0.0 | 0.00 | 0.00 | 0.00 | 89 | 1016.6 |
| 20260507001005 | 5 | 4 | 0.0 | 0.0 | 0.00 | 0.00 | 0.00 | 88 | 1015.6 |
| 20260507000005 | 5 | 4 | 0.0 | 0.0 | 0.00 | 0.00 | 0.00 | 88 | 1015.6 |
| 20260506235505 | 5 | 10 | 0.0 | 0.0 | 0.00 | 0.00 | 0.00 | 88 | 1016.6 |
| 20260506235003 | 5 | 14 | 0.0 | 0.0 | 0.00 | 0.00 | 0.00 | 87 | 1015.6 |
| 20260506234504 | 5 | 14 | 0.0 | 0.0 | 0.00 | 0.00 | 0.00 | 87 | 1015.2 |
| 20260506234004 | 5 | 14 | 0.0 | 0.0 | 0.00 | 0.00 | 0.00 | 86 | 1015.6 |
| 20260506232505 | 6 | 14 | 0.0 | 0.0 | 0.00 | 0.00 | 0.00 | 85 | 1016.6 |
| 20260506232005 | 6 | 14 | 0.0 | 0.0 | 0.00 | 0.00 | 0.00 | 85 | 1016.6 |
| 20260506231504 | 6 | 14 | 0.0 | 0.0 | 0.00 | 0.00 | 0.00 | 85 | 1016.6 |
| 20260506231004 | 6 | 18 | 0.0 | 0.0 | 0.00 | 0.00 | 0.00 | 84 | 1016.6 |
| 20260506230503 | 6 | 18 | 0.0 | 0.0 | 0.00 | 0.00 | 0.00 | 84 | 1015.2 |
| 20260506230004 | 6 | 18 | 0.0 | 0.0 | 0.00 | 0.00 | 0.00 | 84 | 1015.2 |
| 20260506225505 | 6 | 26 | 0.0 | 0.0 | 0.00 | 0.00 | 0.00 | 85 | 1015.2 |
| 20260506225003 | 5 | 29 | 0.0 | 0.0 | 0.00 | 0.00 | 0.00 | 84 | 1015.2 |
| 20260506224504 | 6 | 30 | 0.0 | 0.0 | 0.00 | 0.00 | 0.00 | 84 | 1016.6 |
| 20260506224005 | 6 | 30 | 0.0 | 0.0 | 0.00 | 0.00 | 0.00 | 84 | 1015.6 |
| 20260506223004 | 6 | 30 | 0.0 | 0.0 | 0.00 | 0.00 | 0.00 | 83 | 1016.6 |
| 20260506222504 | 6 | 30 | 0.0 | 0.0 | 0.00 | 0.00 | 0.00 | 82 | 1016.6 |
| 20260506222004 | 6 | 30 | 0.0 | 0.0 | 0.00 | 0.00 | 0.00 | 81 | 1016.3 |
| 20260506221504 | 6 | 30 | 0.0 | 0.0 | 0.00 | 0.00 | 0.00 | 80 | 1016.3 |
| 20260506221005 | 6 | 29 | 0.0 | 0.0 | 0.00 | 0.00 | 0.00 | 80 | 1016.3 |
| 20260506220503 | 7 | 48 | 0.0 | 3.2 | 0.00 | 0.00 | 0.00 | 79 | 1014.9 |
| 20260506220006 | 7 | 40 | 3.2 | 3.2 | 0.00 | 0.00 | 0.00 | 79 | 1016.3 |
| 20260506215504 | 7 | 37 | 0.0 | 3.2 | 0.00 | 0.00 | 0.00 | 79 | 1015.9 |
| 20260506215006 | 6 | 45 | 0.0 | 0.0 | 0.00 | 0.00 | 0.00 | 80 | 1016.3 |
| 20260506214503 | 6 | 45 | 0.0 | 0.0 | 0.00 | 0.00 | 0.00 | 80 | 1014.9 |
| 20260506214004 | 6 | 46 | 0.0 | 0.0 | 0.00 | 0.00 | 0.00 | 80 | 1014.9 |
| 20260506213504 | 7 | 53 | 0.0 | 0.0 | 0.00 | 0.00 | 0.00 | 80 | 1015.9 |
| 20260506213005 | 7 | 53 | 0.0 | 0.0 | 0.00 | 0.00 | 0.00 | 80 | 1014.9 |
| 20260506212504 | 7 | 78 | 0.0 | 0.0 | 0.00 | 0.00 | 0.00 | 80 | 1014.9 |
| 20260506212005 | 7 | 85 | 0.0 | 0.0 | 0.00 | 0.00 | 0.00 | 80 | 1016.3 |
| 20260506211504 | 7 | 85 | 0.0 | 0.0 | 0.00 | 0.00 | 0.00 | 80 | 1014.9 |
| 20260506211004 | 7 | 109 | 0.0 | 0.0 | 0.00 | 0.00 | 0.00 | 79 | 1015.9 |
| 20260506210503 | 7 | 37 | 0.0 | 0.0 | 0.00 | 0.00 | 0.00 | 78 | 1016.3 |
| 20260506210005 | 7 | 37 | 0.0 | 0.0 | 0.00 | 0.00 | 0.00 | 76 | 1016.3 |
| 20260506205505 | 7 | 37 | 0.0 | 0.0 | 0.00 | 0.00 | 0.00 | 76 | 1014.9 |
| 20260506205003 | 8 | 37 | 0.0 | 0.0 | 0.00 | 0.00 | 0.00 | 74 | 1014.9 |
| 20260506204503 | 8 | 37 | 0.0 | 0.0 | 0.00 | 0.00 | 0.00 | 73 | 1014.6 |
| 20260506204004 | 8 | 37 | 0.0 | 0.0 | 0.00 | 0.00 | 0.00 | 73 | 1014.9 |
| 20260506203504 | 8 | 37 | 0.0 | 4.8 | 0.00 | 0.00 | 0.00 | 72 | 1014.6 |
| 20260506203004 | 8 | 37 | 3.2 | 4.8 | 0.00 | 0.00 | 0.00 | 72 | 1014.6 |
| 20260506202503 | 8 | 42 | 0.0 | 0.0 | 0.00 | 0.00 | 0.00 | 72 | 1014.6 |
| 20260506202005 | 9 | 43 | 0.0 | 0.0 | 0.00 | 0.00 | 0.00 | 72 | 1014.6 |
| 20260506201504 | 9 | 66 | 0.0 | 0.0 | 0.00 | 0.00 | 0.00 | 71 | 1015.6 |
| 20260506201004 | 9 | 44 | 0.0 | 0.0 | 0.00 | 0.00 | 0.00 | 71 | 1014.6 |
| 20260506200504 | 9 | 44 | 0.0 | 0.0 | 0.00 | 0.00 | 0.00 | 70 | 1014.6 |
| 20260506200005 | 10 | 44 | 0.0 | 0.0 | 0.00 | 0.00 | 0.00 | 69 | 1014.6 |
| 20260506195503 | 10 | 42 | 3.2 | 8.0 | 0.00 | 0.00 | 0.00 | 68 | 1015.5 |
| 20260506195004 | 10 | 35 | 1.6 | 8.0 | 0.00 | 0.00 | 0.00 | 67 | 1015.3 |
| 20260506194503 | 10 | 20 | 4.8 | 8.0 | 0.00 | 0.00 | 0.00 | 67 | 1015.2 |
| 20260506193504 | 10 | 35 | 1.6 | 8.0 | 0.00 | 0.00 | 0.00 | 66 | 1014.5 |
| 20260506193004 | 10 | 24 | 0.0 | 0.0 | 0.00 | 0.00 | 0.00 | 66 | 1014.2 |
| 20260506192504 | 10 | 29 | 1.6 | 3.2 | 0.00 | 0.00 | 0.00 | 65 | 1014.0 |
| 20260506192005 | 11 | 23 | 0.0 | 3.2 | 0.00 | 0.00 | 0.00 | 64 | 1014.1 |
| 20260506191004 | 11 | 39 | 3.2 | 4.8 | 0.00 | 0.00 | 0.00 | 63 | 1014.2 |
| 20260506185504 | 11 | 64 | 4.8 | 11.3 | 0.00 | 0.00 | 0.00 | 62 | 1014.2 |
| 20260506185004 | 11 | 36 | 4.8 | 11.3 | 0.00 | 0.00 | 0.00 | 61 | 1014.7 |
| 20260506184505 | 11 | 28 | 6.4 | 8.0 | 0.00 | 0.00 | 0.00 | 60 | 1013.9 |
| 20260506184004 | 11 | 32 | 8.0 | 22.5 | 0.00 | 0.00 | 0.00 | 59 | 1014.0 |
| 20260506183504 | 12 | 3 | 8.0 | 22.5 | 0.00 | 0.00 | 0.00 | 58 | 1014.6 |
| 20260506183004 | 12 | 47 | 11.3 | 19.3 | 0.00 | 0.00 | 0.00 | 58 | 1014.9 |
| 20260506182504 | 12 | 24 | 8.0 | 19.3 | 0.00 | 0.00 | 0.00 | 58 | 1014.6 |
| 20260506182004 | 12 | 22 | 6.4 | 14.5 | 0.00 | 0.00 | 0.00 | 58 | 1014.9 |
| 20260506181505 | 12 | 40 | 9.7 | 19.3 | 0.00 | 0.00 | 0.00 | 58 | 1014.6 |
| 20260506180005 | 12 | 33 | 8.0 | 11.3 | 0.00 | 0.00 | 0.00 | 58 | 1013.9 |
| 20260506175504 | 12 | 59 | 4.8 | 19.3 | 0.00 | 0.00 | 0.00 | 58 | 1013.5 |
| 20260506175004 | 12 | 22 | 6.4 | 19.3 | 0.00 | 0.00 | 0.00 | 57 | 1014.6 |
| 20260506174504 | 12 | 10 | 6.4 | 19.3 | 0.00 | 0.00 | 0.00 | 57 | 1014.2 |
| 20260506174004 | 12 | 5 | 3.2 | 11.3 | 0.00 | 0.00 | 0.00 | 56 | 1014.2 |
| 20260506173504 | 12 | 34 | 8.0 | 14.5 | 0.00 | 0.00 | 0.00 | 55 | 1014.2 |
| 20260506173004 | 12 | 30 | 9.7 | 14.5 | 0.00 | 0.00 | 0.00 | 55 | 1013.9 |
| 20260506172004 | 12 | 38 | 4.8 | 19.3 | 0.00 | 0.00 | 0.00 | 55 | 1013.9 |
| 20260506171004 | 13 | 57 | 11.3 | 16.1 | 0.00 | 0.00 | 0.00 | 53 | 1013.2 |
| 20260506170504 | 13 | 60 | 9.7 | 19.3 | 0.00 | 0.00 | 0.00 | 55 | 1013.2 |
| 20260506165503 | 13 | 45 | 3.2 | 4.8 | 0.00 | 0.00 | 0.00 | 56 | 1013.5 |
| 20260506165003 | 13 | 27 | 4.8 | 12.9 | 0.00 | 0.00 | 0.00 | 56 | 1013.5 |
| 20260506164504 | 13 | 25 | 9.7 | 12.9 | 0.00 | 0.00 | 0.00 | 55 | 1013.5 |
| 20260506164004 | 13 | 28 | 3.2 | 4.8 | 0.00 | 0.00 | 0.00 | 54 | 1013.2 |
| 20260506163505 | 13 | 30 | 3.2 | 8.0 | 0.00 | 0.00 | 0.00 | 54 | 1013.2 |
| 20260506163005 | 13 | 27 | 4.8 | 12.9 | 0.00 | 0.00 | 0.00 | 54 | 1013.2 |
| 20260506162504 | 13 | 49 | 11.3 | 14.5 | 0.00 | 0.00 | 0.00 | 53 | 1013.2 |
| 20260506161504 | 13 | 34 | 8.0 | 22.5 | 0.00 | 0.00 | 0.00 | 53 | 1013.2 |
| 20260506160504 | 13 | 18 | 19.3 | 25.7 | 0.00 | 0.00 | 0.00 | 52 | 1014.2 |
| 20260506160004 | 13 | 61 | 4.8 | 29.0 | 0.00 | 0.00 | 0.00 | 52 | 1013.9 |
| 20260506155504 | 13 | 34 | 19.3 | 29.0 | 0.00 | 0.00 | 0.00 | 50 | 1013.9 |
| 20260506155004 | 13 | 21 | 12.9 | 22.5 | 0.00 | 0.00 | 0.00 | 50 | 1013.9 |
| 20260506154505 | 13 | 349 | 16.1 | 25.7 | 0.00 | 0.00 | 0.00 | 49 | 1013.9 |
| 20260506154004 | 13 | 9 | 12.9 | 25.7 | 0.00 | 0.00 | 0.00 | 49 | 1014.2 |
| 20260506153503 | 13 | 341 | 9.7 | 22.5 | 0.00 | 0.00 | 0.00 | 50 | 1014.2 |
| 20260506153004 | 13 | 58 | 8.0 | 11.3 | 0.00 | 0.00 | 0.00 | 51 | 1013.5 |
| 20260506152504 | 13 | 50 | 3.2 | 25.7 | 0.00 | 0.00 | 0.00 | 49 | 1013.5 |
| 20260506152005 | 13 | 54 | 19.3 | 25.7 | 0.00 | 0.00 | 0.00 | 50 | 1013.9 |
| 20260506151504 | 13 | 34 | 12.9 | 20.9 | 0.00 | 0.00 | 0.00 | 50 | 1013.5 |
| 20260506151005 | 13 | 24 | 14.5 | 19.3 | 0.00 | 0.00 | 0.00 | 48 | 1013.9 |
| 20260506150504 | 14 | 37 | 8.0 | 11.3 | 0.00 | 0.00 | 0.00 | 48 | 1013.5 |
| 20260506145504 | 14 | 38 | 4.8 | 22.5 | 0.00 | 0.00 | 0.00 | 49 | 1013.9 |
| 20260506145004 | 13 | 49 | 12.9 | 22.5 | 0.00 | 0.00 | 0.00 | 50 | 1013.5 |
| 20260506144504 | 13 | 21 | 16.1 | 22.5 | 0.00 | 0.00 | 0.00 | 49 | 1014.2 |
| 20260506143505 | 13 | 332 | 9.7 | 25.7 | 0.00 | 0.00 | 0.00 | 48 | 1013.5 |
| 20260506143004 | 14 | 71 | 14.5 | 29.0 | 0.00 | 0.00 | 0.00 | 47 | 1014.2 |
| 20260506142504 | 13 | 26 | 14.5 | 29.0 | 0.00 | 0.00 | 0.00 | 48 | 1014.2 |
| 20260506142004 | 13 | 357 | 16.1 | 33.8 | 0.00 | 0.00 | 0.00 | 50 | 1014.2 |
| 20260506141504 | 13 | 2 | 4.8 | 33.8 | 0.00 | 0.00 | 0.00 | 51 | 1014.2 |
| 20260506141004 | 14 | 52 | 14.5 | 22.5 | 0.00 | 0.00 | 0.00 | 51 | 1014.2 |
| 20260506140505 | 13 | 11 | 11.3 | 19.3 | 0.00 | 0.00 | 0.00 | 52 | 1014.2 |
| 20260506140005 | 13 | 25 | 14.5 | 19.3 | 0.00 | 0.00 | 0.00 | 51 | 1014.2 |
| 20260506135505 | 14 | 32 | 11.3 | 16.1 | 0.00 | 0.00 | 0.00 | 52 | 1013.9 |
| 20260506134504 | 13 | 306 | 8.0 | 29.0 | 0.00 | 0.00 | 0.00 | 51 | 1014.2 |
| 20260506134003 | 13 | 311 | 16.1 | 29.0 | 0.00 | 0.00 | 0.00 | 51 | 1014.2 |
| 20260506133505 | 14 | 297 | 14.5 | 25.7 | 0.00 | 0.00 | 0.00 | 51 | 1014.2 |
| 20260506132504 | 13 | 25 | 11.3 | 25.7 | 0.00 | 0.00 | 0.00 | 52 | 1014.6 |
| 20260506132005 | 13 | 48 | 9.7 | 25.7 | 0.00 | 0.00 | 0.00 | 51 | 1013.9 |